Weather Roundup
Issued by NWS Springfield, MO

Home | Current Version | Previous Version | Text Only | Print | Product List | Glossary On
Versions: 1 2 3 4 5 6 7 8 9 10 11 12 13 14 15 16 17 18 19 20 21 22 23 24 25 26 27 28 29 30 31 32 33 34 35 36 37 38 39 40 41 42 43 44 45 46 47 48 49 50
000
NZUS99 KSGF 212007
HRRSGF

HOURLY WEATHER
NATIONAL WEATHER SERVICE SPRINGFIELD MO
200 PM CST SUN DEC 21 2014

......SGF CWA......

CITY           SKY/WX    TMP DP  RH WIND       PRES   REMARKS
SPRINGFIELD    CLOUDY    42  37  82 SE17      29.93F
JOPLIN         CLOUDY    47  40  76 S13       29.91F
WEST PLAINS    CLOUDY    41  33  73 SE8       30.01F
ROLLA          CLOUDY    39  36  89 SE12      29.99F FOG     WCI  32
OSAGE BEACH    CLOUDY    43  37  81 S13G20    29.97F
BRANSON        CLOUDY    41  36  81 SE9       29.98F

......SURROUNDING SGF CWA......

CITY           SKY/WX    TMP DP  RH WIND       PRES   REMARKS
CHANUTE        CLOUDY    45  42  89 S16       29.87F
PARSONS        CLOUDY    47  42  83 S12G20    29.89F
COFFEYVILLE    CLOUDY    47  41  80 S13       29.88F
EMPORIA        LGT RAIN  42  40  92 S14       29.82F
GROVE OK       CLOUDY    50  41  71 SE12G17   29.92F
ROGERS AR      CLOUDY    45  38  76 S8G18     29.94F
SILOAM SPRINGS CLOUDY    45  36  70 SE10G18   29.94F
HARRISON AR    CLOUDY    43  36  76 SE10      29.97F
NEAR YELLVILLE CLOUDY    45  34  65 CALM      30.00F

......KANSAS AND MISSOURI......

CITY           SKY/WX    TMP DP  RH WIND       PRES   REMARKS
KANSAS CTY INT CLOUDY    44  39  82 S14       29.86F
DOWNTOWN KC    CLOUDY    46  39  76 S10       29.87F
COLUMBIA       CLOUDY    43  38  82 S17       29.97F
SEDALIA        CLOUDY    45  40  82 S15       29.94F
ST JOSEPH      CLOUDY    43  39  86 S10       29.85F
ST LOUIS       CLOUDY    44  32  62 SE14      30.06F
SPIRIT OF STL  CLOUDY    44  34  67 S7        30.04F
KIRKSVILLE     CLOUDY    45  39  79 S14       29.92F
WICHITA        DRIZZLE   45  42  89 S13       29.78F FOG
TOPEKA         CLOUDY   N/A N/A N/A S10       29.85F
OLATHE         CLOUDY    45  40  82 S10       29.86F

......TENNESSEE......

CITY           SKY/WX    TMP DP  RH WIND       PRES   REMARKS
MEMPHIS        MOSUNNY   56  32  40 E3        30.05F
NASHVILLE      MOSUNNY   53  31  42 E6        30.09F

......ARKANSAS.......

CITY           SKY/WX    TMP DP  RH WIND       PRES   REMARKS
FAYETTEVILLE   CLOUDY    46  38  73 S13       29.94F
FT SMITH       CLOUDY    51  38  60 SE8       29.96F
LITTLE ROCK    MOSUNNY   54  35  48 SE12      30.03F

......OKLAHOMA.......

CITY           SKY/WX    TMP DP  RH WIND       PRES   REMARKS
TULSA          CLOUDY    49  42  77 S14G23    29.89F
PONCA CITY     CLOUDY    49  42  77 S14G21    29.81F
MCALESTER      CLOUDY    49  40  71 S14G21    29.92F
OKLAHOMA CITY  DRIZZLE   47  43  86 S15       29.81F FOG

......IOWA............

CITY           SKY/WX    TMP DP  RH WIND       PRES   REMARKS
DES MOINES     CLOUDY    42  35  76 S21G26    29.84F
QUAD CITIES    CLOUDY    41  33  73 S12       29.99F

......ILLINOIS........

CITY           SKY/WX    TMP DP  RH WIND       PRES   REMARKS
QUINCY         CLOUDY    44  35  70 S13       29.97F
CHICAGO        CLOUDY    36  28  73 S15       30.09F WCI  27



USA.gov is the U.S. government's official web portal to all federal, state and local government web resources and services.